User: anonymous   Login
Location: Okie-Tex Star Party
(36.8978°N, 102.9520°W)
Time: 04:29:36
(UTC-05:00)
Language:

Hamsat - Orbit

View from above orbital plane
View from above orbital plane
View from above satellite
View from above satellite

Ground track
Ground track

The orbit data is extracted from the following two-line orbital elements,

1 28650U 05017B   15209.52360732  .00000677  00000-0  80068-4 0  9995
2 28650 097.5771 200.1222 0022489 253.8703 106.0038 14.87533709553593
Epoch (UTC): 28 July 2015 12:33:59
Eccentricity: 0.0022489
inclination: 97.5771°
perigee height: 590 km
apogee height: 621 km
right ascension of ascending node: 200.1222°
argument of perigee: 253.8703°
revolutions per day: 14.87533709
mean anomaly at epoch: 106.0038°
orbit number at epoch: 55359

The dashed part of the orbit path shows where the satellite is in the earth's shadow,  

DLR